Observations for Trim Patrick St
| Time | AQI | Temp °C | Hum % | Pres Pa | CO μg/m³ | H₂S μg/m³ | NO μg/m³ | NO₂ μg/m³ | O₃ μg/m³ | SO₂ μg/m³ | PM1 μg/m³ | PM2.5 μg/m³ | PM10 μg/m³ |
|---|---|---|---|---|---|---|---|---|---|---|---|---|---|
| Saturday 8 August 2026 | |||||||||||||
| 12:17 | 1 | 28 | 40 | 69,102 | 0 | 0 | 1.11 | 10.24 | 72.79 | 9.85 | 2 | 7.84 | 8.62 |
| 12:16 | 1 | 28 | 40 | 69,086 | 0 | 0 | 1.11 | 10.25 | 69.1 | 10.03 | 2 | 7.86 | 8.65 |
| 12:15 | 1 | 28 | 40 | 69,098 | 0 | 0 | 1.08 | 10.23 | 66.29 | 9.3 | 2 | 7.03 | 7.73 |
| 12:14 | 1 | 28 | 40 | 69,116 | 0 | 0 | 1.08 | 10.27 | 67.36 | 9.54 | 2 | 7.82 | 8.6 |
| 12:13 | 1 | 28 | 40 | 69,108 | 0 | 0 | 1.08 | 7.27 | 65.23 | 10.2 | 2 | 7.82 | 8.6 |
| 12:12 | 1 | 28 | 40 | 69,096 | 0 | 0 | 1.09 | 8.5 | 61.61 | 9.68 | 2.86 | 7.84 | 8.63 |
| 12:11 | 1 | 28 | 40 | 69,110 | 0 | 0 | 1.08 | 10.17 | 62.76 | 9.88 | 2.86 | 8.6 | 9.46 |
| 12:10 | 1 | 27.9 | 41 | 69,126 | 0 | 0 | 1.09 | 10.23 | 63.63 | 9.87 | 2.86 | 7.78 | 8.56 |
| 12:09 | 1 | 27.9 | 41 | 69,118 | 0 | 0 | 1.09 | 10.17 | 73.02 | 9.18 | 2 | 6.99 | 7.69 |
| 12:08 | 1 | 27.9 | 40 | 69,108 | 0 | 0 | 1.09 | 9.99 | 57.51 | 9.54 | 2 | 7.03 | 7.73 |
| 12:07 | 1 | 27.9 | 41 | 69,124 | 0 | 0 | 1.08 | 9.86 | 72.56 | 10.06 | 2.86 | 7.79 | 8.57 |
| 12:06 | 1 | 27.9 | 40 | 69,116 | 0 | 0 | 1.1 | 10.28 | 64.83 | 9.43 | 2.86 | 8.6 | 9.46 |
| 12:05 | 1 | 27.9 | 40 | 69,108 | 0 | 0 | 1.09 | 10.03 | 63.74 | 9.31 | 2 | 7.8 | 8.58 |
| 12:04 | 1 | 27.8 | 42 | 69,122 | 0 | 0 | 1.09 | 8.81 | 58.51 | 9.53 | 2 | 7.72 | 8.49 |
| 12:02 | 1 | 27.7 | 41 | 69,100 | 0 | 0 | 1.11 | 10.26 | 64.3 | 9.18 | 2 | 6.97 | 7.67 |
| 12:01 | 1 | 27.6 | 42 | 69,080 | 0 | 0 | 1.13 | 12.46 | 73.72 | 9 | 2 | 6.95 | 7.64 |
| 12:00 | 1 | 27.6 | 41 | 69,084 | 0 | 0 | 1.12 | 9.55 | 64.81 | 9.29 | 2 | 7.76 | 8.54 |
| 11:59 | 1 | 27.5 | 41 | 69,063 | 0 | 0 | 1.13 | 10.33 | 53.98 | 8.6 | 2 | 6.96 | 7.65 |
| 11:58 | 1 | 27.4 | 41 | 69,065 | 0 | 0 | 1.15 | 9.92 | 62.39 | 8.03 | 2.86 | 8.53 | 9.38 |
| 11:57 | 1 | 27.3 | 42 | 69,072 | 0 | 0 | 1.15 | 9.72 | 58.72 | 9.14 | 2 | 6.93 | 7.62 |